星链-5983 (STARLINK-5983 )

导读 | 星芒AI

STARLINK-5983 是 SpaceX Starlink 项目中的一颗低轨通信卫星,属于第 21 批发射的星链卫星群。该卫星于 2022 年 11 月 19 日由猎鹰 9 号火箭送入近地轨道,主要用于提供全球宽带互联网服务。它运行在约 550 公里的高度,设计寿命为 5 至 7 年。STARLINK-5983 采用先进的相控阵天线和激光通信技术,以提升网络速度和稳定性,支持偏远地区的高速互联网接入。

基本信息
目录编号:
57224
目录名称:
STARLINK-5983
国际标识:
2023-094G
轨道中心:
EARTH
卫星名称:
星链-5983
卫星全名:
星链-5983 (STARLINK-5983 )
卫星状态:
在轨 (已飞行898 天)
发射日期:
2023-07-07 UTC
国别 :
美国 (US)
星等 :
--
轨道信息
数据来源 国际轨道数据 AOE轨道数据
星历时间 2025-12-21T14:51:20+0800
10小时前
查看轨道信息
2025-12-20T11:00:00+0800
1天前
查看轨道信息
半长轴 6937.237km 6937.175km
偏心率 0.0000727 0.0001386
轨道倾角 43.004° 43.002°
近地点辐角 274.460° 277.984°
升交点赤经 96.555° 102.862°
平近点角 85.616° 276.873°
近地点 558.595km 558.076km
远地点 559.605km 560km
周期 95.838分钟 95.837分钟
每日圈数 15.025294 15.025495
详细信息
固有亮度:
5
最大亮度:
2.4
卫星平台:
Starlink v1.5
覆盖范围:
全球
运营商:
太空探索技术公司
运营商所在国:
美国
制造商(研发单位):
太空探索技术公司
制造商所在国:
美国
使用方式:
暂无
卫星简介
星链(Starlink)计划是由太空探索技术公司(SpaceX)提出的一个巨型低轨卫星互联网星座项目,计划在2019年至2024年间在太空搭建由约1.2万颗卫星组成的“星链”网络,其中1584颗将部署在地球上空550千米处的近地轨道,并从2020年开始工作。该卫星仍在工作。
2D轨道图
3D轨道图
轨道高度分析图
轨道倾角分析图
轨道综合分析图
查看轨道综合分析图